Location: Baia Mare
(47.6567°N, 23.5850°E)
Time: 13:31:18
(UTC+03:00)

ISS - Pass Details

Date: 03 July 2019
Orbit: 409 x 418 km, 51.6° (Epoch: 21 July)

Event Time Altitude Azimuth Distance (km) Brightness Sun altitude
Exits shadow 03:35:55 12° 153° (SSE) 1,354 -1.5 -13.9°
Maximum altitude 03:36:50 13° 135° (SE) 1,297 -1.4 -13.8°
Drops below altitude 10° 03:38:32 10° 104° (ESE) 1,488 -0.8 -13.7°
Sets 03:41:23 0° 77° (ENE) 2,339 0.7 -13.4°
